SCP
1 1 1 2 2 2 2 2 2 2 2 1 1 1 1 2 2 3 4 4 4 5 5 4 4 3 3 3 2 2 1 1 2 2 2 2 3 3 3 4 3 3 3
1 1 1 1 2 2 2 2 2 2 2 1 1 1 1 2 2 3 4 4 4 5 4 4 3 3 3 2 2 1 1 1 1 2 2 3 3 3 3 4 3 3 3
2 2 1 1 1 1 2 2 2 2 2 1 1 2 2 2 2 3 4 4 4 4 4 3 3 2 2 2 1 1 1 1 1 1 2 3 3 4 4 4 4 4 3
2 2 2 2 2 2 2 2 2 2 2 2 2 2 2 2 3 3 4 4 4 4 3 3 2 2 1 1 1 1 1 1 1 1 1 2 3 4 4 4 4 4 3
2 2 2 2 2 2 2 2 2 2 2 2 3 3 3 3 3 3 3 3 3 3 2 2 2 1 1 1 1 1 1 1 0 1 1 2 3 4 4 4 3 3 3
3 3 3 2 2 3 3 3 3 3 3 3 3 4 4 4 3 3 3 3 2 2 2 1 1 1 1 0 1 1 1 1 0 0 1 1 2 3 3 3 3 3 3
3 3 3 3 3 3 3 3 3 3 4 4 4 4 4 3 3 3 2 2 2 1 1 1 1 1 1 1 1 1 1 1 0 0 1 1 2 2 3 3 3 3 3
3 3 4 4 3 3 3 3 3 4 4 4 4 4 3 3 3 2 2 1 1 1 1 1 1 1 1 1 1 1 1 1 1 1 1 1 2 2 3 3 3 3 2
4 4 4 4 4 4 4 4 4 4 4 4 4 3 3 3 2 2 1 1 1 1 1 1 1 2 1 1 2 2 2 2 1 1 1 1 2 2 2 3 3 3 3
5 5 5 5 5 5 4 4 4 4 4 4 3 3 3 2 2 2 2 2 2 2 2 2 2 2 2 1 2 2 2 1 1 1 1 1 2 2 2 3 3 3 3
5 5 5 5 5 5 5 5 5 5 4 4 3 3 3 2 2 2 2 2 2 2 2 2 2 2 1 1 1 1 1 1 1 1 1 1 2 3 3 3 3 3 3
4 4 4 4 5 5 5 5 5 5 4 3 3 3 2 2 2 2 2 2 2 2 2 2 2 1 1 1 1 1 1 1 1 1 2 2 3 3 3 3 4 4 3
4 4 4 4 4 5 5 5 4 4 4 3 3 3 2 2 2 2 2 2 2 2 2 1 1 1 1 1 1 1 1 1 1 2 2 3 3 3 3 3 3 3 3
4 4 4 4 4 4 4 4 4 4 3 3 3 2 2 2 2 2 2 2 2 2 1 1 1 1 1 1 1 1 1 1 1 2 3 3 3 3 3 3 3 3 2
4 4 4 4 4 4 4 4 3 3 3 3 2 2 2 2 2 2 1 1 2 2 1 1 1 1 1 1 1 1 1 1 1 1 2 3 3 3 3 3 2 2 2
4 4 4 4 3 3 3 3 3 2 2 2 2 2 2 2 1 2 2 2 2 1 1 1 1 1 1 1 1 1 1 1 1 1 1 2 3 3 3 2 2 2 2
4 4 4 4 3 3 3 3 2 2 2 2 2 2 2 2 2 2 2 2 1 1 1 1 1 1 1 1 1 1 1 0 0 0 1 1 2 2 2 2 2 2 2
5 5 4 4 4 3 3 3 2 2 2 1 2 2 2 2 2 2 2 2 1 1 1 1 1 1 0 0 0 0 0 0 0 0 0 1 1 1 1 2 2 2 2
6 6 5 5 4 3 3 3 2 2 1 1 1 1 1 1 1 1 1 1 1 1 1 1 1 1 0 0 0 0 0 0 0 0 0 1 1 1 2 2 2 2 2
7 6 5 4 4 4 3 3 2 1 1 1 1 1 1 1 1 1 1 1 1 1 0 0 0 0 0 0 0 0 0 0 0 0 0 1 1 1 2 2 2 2 2
8 7 5 4 4 4 3 3 2 2 1 1 1 1 1 1 1 1 1 1 0 0 0 0 0 0 0 0 0 0 0 0 0 0 0 1 1 1 2 2 2 2 2
9 8 6 5 4 4 3 3 3 3 2 1 1 1 1 1 1 1 1 0 0 0 0 0 0 0 0 0 0 0 0 0 0 0 0 0 1 1 1 2 2 2 2
9 8 7 6 5 4 3 2 3 3 2 1 1 1 1 1 1 1 0 0 0 0 0 0 0 0 0 0 0 0 0 0 0 0 0 0 0 0 1 1 1 1 1
8 8 7 7 6 4 3 2 2 2 1 1 1 1 1 1 0 0 0 0 0 0 0 0 0 0 0 0 0 0 0 0 0 0 0 0 0 0 0 0 0 1 1
6 7 7 7 6 4 2 1 1 1 1 0 0 0 0 0 0 0 0 0 0 0 0 0 0 0 0 0 0 0 0 0 0 0 0 0 0 0 0 0 0 0 0
5 6 6 6 5 3 2 1 1 0 0 0 0 0 0 0 0 0 0 0 0 0 0 0 0 0 0 0 0 0 0 0 0 0 0 0 0 0 0 0 0 0 0
Wind_Speed
8 12 18 17 15 14 15 17 18 19 19 19 19 18 18 17 16 15 15 14 13 13 12 12 12 13 13 13 14 15 15 15 15 16 16 16 16 15 15 15 14 12 15
13 14 19 18 17 15 15 17 18 18 19 19 18 18 17 17 16 15 14 14 13 13 13 13 13 13 13 13 14 14 14 14 13 14 15 15 15 15 15 14 13 10 14
14 14 17 18 17 16 16 17 17 18 18 18 18 17 17 16 15 14 14 13 13 13 13 13 13 13 13 13 13 13 13 12 11 12 12 8 11 14 14 14 13 14 14
14 12 14 18 17 17 17 17 17 18 18 18 17 17 17 16 15 14 14 13 13 12 12 12 12 12 12 12 12 11 11 11 10 10 6 6 7 13 14 14 13 13 13
12 11 13 20 18 17 18 17 17 18 18 17 17 16 16 15 14 13 13 13 12 12 12 12 12 11 11 10 10 9 9 9 9 8 4 4 5 12 13 13 13 13 13
12 11 13 19 18 18 18 18 18 18 17 17 16 15 15 14 13 12 13 12 12 11 11 11 10 10 9 9 8 7 7 7 7 5 5 5 5 11 13 13 13 13 12
11 10 11 17 18 18 18 17 17 16 15 15 14 14 13 12 11 11 11 11 10 10 9 9 9 8 7 7 6 5 5 6 5 5 5 5 6 10 12 13 13 12 12
11 9 10 17 18 17 17 16 15 15 14 13 13 12 12 11 10 10 10 9 9 8 8 7 7 6 5 4 4 3 3 4 4 4 5 6 7 10 12 12 12 12 12
10 9 8 10 13 16 15 15 14 14 13 12 12 11 11 11 10 10 9 8 8 7 6 6 5 4 3 2 2 2 2 2 3 2 4 5 8 11 12 12 12 12 12
8 8 8 7 7 8 9 15 15 14 13 13 13 12 11 11 10 9 7 7 7 6 5 4 3 2 1 0 1 1 1 1 1 1 2 4 10 12 12 12 12 12 12
8 7 8 7 7 7 7 11 13 14 13 12 10 12 9 4 4 5 6 7 6 6 5 4 3 2 1 1 2 2 1 0 1 1 2 6 10 12 12 12 12 12 12
11 9 7 8 8 7 7 7 5 6 6 5 5 6 4 3 3 4 4 6 6 5 4 3 3 2 1 0 2 2 0 2 2 2 3 7 10 12 13 12 13 13 12
10 10 8 8 8 7 5 5 4 3 4 4 5 5 4 3 2 2 1 2 2 3 1 1 1 1 0 0 0 1 1 2 2 2 4 8 9 12 13 12 13 13 13
10 10 9 9 8 7 6 5 5 4 4 4 4 5 4 3 2 2 2 1 1 0 1 0 0 1 1 1 1 2 2 2 2 2 4 8 9 11 12 11 12 13 13
8 9 9 9 7 6 6 5 6 5 5 5 4 4 5 4 3 2 2 1 1 1 1 1 0 1 1 1 1 2 2 2 2 3 3 6 8 9 11 12 12 12 13
6 6 6 7 6 5 4 4 4 4 4 4 4 5 5 4 3 3 2 1 1 1 1 1 1 1 0 1 1 1 2 2 1 2 2 3 4 6 7 9 10 11 12
5 4 5 6 6 6 4 4 3 3 4 3 3 3 4 4 3 3 2 1 1 1 1 1 1 0 0 1 2 2 2 3 3 2 2 2 2 2 4 6 7 8 10
4 4 4 5 6 6 5 4 3 3 3 3 2 2 3 4 4 3 2 2 1 1 1 1 1 1 1 1 1 2 2 3 3 3 3 2 2 2 3 3 4 5 6
3 3 3 2 4 5 5 5 4 4 3 3 3 3 3 3 4 3 2 2 2 2 1 1 1 1 1 1 1 2 2 3 3 4 4 4 3 3 3 4 5 4 5
4 3 3 3 2 3 4 4 4 5 4 4 4 4 5 4 5 4 4 4 3 3 3 2 2 2 2 1 2 2 3 3 3 3 4 4 4 4 4 4 4 4 5
7 6 4 4 3 3 3 3 3 4 4 5 6 7 7 7 7 6 5 5 4 4 3 2 2 3 2 1 1 1 2 3 3 3 3 4 5 5 5 5 4 4 4
8 7 6 5 4 3 3 3 4 5 5 6 6 8 9 9 8 6 7 5 5 5 5 4 2 2 2 3 1 1 1 2 3 4 4 4 5 5 6 6 6 5 5
9 8 7 6 5 4 5 6 7 5 4 4 6 6 9 9 9 8 8 6 6 5 5 5 4 2 2 3 3 1 1 1 1 2 4 5 6 6 6 5 6 6 6
9 8 8 8 7 6 5 7 8 6 6 6 6 6 9 10 9 8 9 8 8 7 7 6 6 4 3 3 3 4 3 2 0 0 2 4 6 7 7 6 7 7 6
9 9 8 9 10 9 8 8 10 9 8 8 8 10 9 9 9 9 9 9 9 8 8 9 8 8 6 5 4 3 4 4 4 1 1 3 3 5 6 7 6 6 6
10 9 9 11 11 10 11 11 11 12 11 11 10 9 8 7 7 10 10 9 9 8 9 8 8 10 8 8 7 6 4 4 3 3 2 2 3 3 4 5 6 6 5
Wind_Direction
150 151 155 155 152 144 135 128 123 122 122 123 125 126 127 128 128 129 129 128 126 123 119 115 112 111 111 111 112 115 118 120 123 125 127 127 126 126 124 122 122 122 122
146 150 154 154 152 147 138 131 126 124 123 124 125 126 127 128 128 128 129 129 128 126 123 120 118 117 117 118 120 121 123 125 128 131 132 131 131 130 129 128 126 128 127
141 148 153 154 153 148 141 133 129 127 126 126 126 127 128 128 128 129 129 129 129 127 126 125 124 122 121 122 123 125 126 126 127 128 123 124 133 135 136 135 134 131 131
140 145 151 154 153 149 142 136 134 132 130 129 130 131 131 131 131 131 132 131 130 129 128 128 127 125 123 123 123 124 124 123 123 120 113 129 142 143 142 141 140 139 137
141 144 154 155 154 150 145 141 139 137 135 135 134 134 134 133 133 133 133 133 132 132 132 131 129 128 126 124 124 125 125 126 131 128 128 129 135 149 147 148 148 146 144
145 147 157 157 156 153 150 147 144 142 140 139 138 138 136 135 134 134 135 135 135 135 134 132 130 128 127 125 124 123 122 126 127 136 145 146 149 158 156 156 155 152 152
146 149 157 158 157 156 154 151 148 145 143 142 141 140 138 137 136 137 139 139 140 140 138 136 132 129 126 124 121 116 117 127 127 144 158 162 169 169 166 164 161 160 161
145 147 154 160 160 160 159 155 151 148 147 146 144 142 141 141 142 144 145 146 146 146 144 141 137 134 126 117 110 100 100 119 133 157 169 176 186 180 176 172 169 168 168
141 146 151 159 162 164 162 158 154 152 151 149 148 148 149 150 151 153 154 154 154 155 155 153 150 145 135 114 89 61 53 87 119 168 182 186 197 191 184 180 178 178 176
138 150 154 155 154 157 161 163 161 158 157 156 157 159 160 160 161 163 160 165 168 171 172 171 172 171 165 131 22 356 345 44 126 201 198 200 204 200 194 189 187 186 185
149 154 157 156 154 155 159 168 165 165 165 164 165 167 163 154 156 162 171 182 186 191 194 197 211 227 243 309 325 317 326 268 242 234 222 220 212 211 205 199 196 194 193
164 168 165 161 159 159 168 161 157 161 162 160 157 161 150 145 159 164 186 202 206 209 217 227 245 259 267 4 323 322 303 258 248 242 235 234 226 219 213 206 203 202 201
166 173 171 165 161 162 161 154 155 152 154 158 161 157 146 143 148 152 148 221 235 231 228 280 294 314 335 270 281 290 271 259 254 253 246 244 238 230 223 214 208 208 207
168 175 175 170 168 167 159 157 158 159 165 172 168 158 153 157 170 175 175 193 202 201 194 212 243 322 318 291 274 282 279 264 257 256 257 253 243 237 233 223 218 215 212
174 178 178 173 172 167 161 162 163 169 175 174 166 170 169 173 186 191 189 187 192 190 190 196 212 275 297 305 302 291 289 275 273 267 273 269 253 241 235 226 220 220 219
171 178 176 172 164 163 164 161 165 169 163 163 174 184 178 178 183 188 195 194 202 192 181 180 195 210 312 337 337 327 320 324 321 303 288 291 277 254 240 232 227 223 222
160 169 179 180 166 161 165 165 151 158 154 162 173 179 179 178 180 173 172 181 201 174 153 144 142 89 349 10 356 356 360 3 1 351 341 333 326 295 259 246 237 232 227
140 156 176 192 176 167 166 161 138 137 143 144 137 139 158 162 161 156 155 165 153 128 125 135 111 83 29 29 16 6 9 8 11 6 6 4 3 354 335 307 269 246 240
124 139 143 152 165 167 160 136 120 114 108 100 98 99 115 127 134 134 129 109 100 97 93 117 93 108 88 75 58 31 18 16 11 14 14 11 12 10 2 350 332 298 268
66 83 94 94 109 126 126 114 106 94 87 84 75 71 76 76 84 96 91 77 75 80 69 67 83 70 65 71 77 55 36 26 25 23 13 14 15 17 15 7 354 349 336
50 53 70 81 79 101 112 115 109 96 89 77 69 67 67 68 67 71 78 71 67 72 64 61 86 79 52 27 86 60 38 39 35 22 18 22 23 20 21 19 12 4 356
46 41 47 56 61 80 101 99 90 89 83 77 67 60 57 62 62 70 72 70 65 72 59 43 54 93 56 24 61 121 22 10 31 31 28 32 26 23 23 24 23 18 9
41 38 43 48 53 61 93 106 103 98 92 78 67 61 53 60 63 69 76 75 69 73 70 51 41 72 101 53 37 63 150 213 359 18 33 33 30 28 22 19 22 20 15
38 38 44 49 53 60 83 114 116 116 107 86 81 75 64 60 63 63 69 70 69 67 65 56 51 48 66 62 41 34 44 48 91 339 21 28 33 32 25 22 19 18 17
43 43 45 52 54 58 73 96 106 104 101 99 90 82 71 61 58 61 65 68 68 66 67 63 59 60 60 61 51 34 37 36 33 54 18 3 18 26 25 23 18 14 14
49 48 49 58 57 58 68 79 93 103 103 99 92 88 79 68 61 60 66 68 66 66 65 65 64 64 66 66 61 53 50 45 28 38 40 358 356 359 10 21 20 14 12